Martin Challenger — WDB2346 — position and weather

sailwx.info

Track history (hours):
 
Tides and Currents Weather Stations Pressure Air Temp Water Temp Dewpoint Dewpoint Depression Visibility Wind Speed Wind Dir Waves Ship Positions

Martin Challenger

Owner: MARTIN OPERATING PARTNERSHIP LP, VIDOR, TX. More information available from US FCC via Universal Licensing System and Coast Guard Vessel Documentation Center.

Last reported at 2014-Oct-25 17:33 UTC. Time now 2014-Oct-25 23:38 UTC.
Position N 29°23' W 094°52'.

Length 20 m; draft 2.9 m.

MMSI: 366874920.

Date/timePositionNaut miles runAvg speedWind from/ knotsBaromVisibWave heightAir tempDewpointWater temp
2014-Oct-25 17:33N 29°23' W 094°52'3 1.2
2014-Oct-25 15:14N 29°21' W 094°49'0 0.0
2014-Oct-25 14:27N 29°21' W 094°49'0 0.0
2014-Oct-25 13:16N 29°21' W 094°49'0 0.0
2014-Oct-25 12:11N 29°21' W 094°49'0 0.0
2014-Oct-25 11:33N 29°21' W 094°49'0 0.0
2014-Oct-25 10:33N 29°21' W 094°49'0 0.0
2014-Oct-25 09:33N 29°21' W 094°49'0 0.0
2014-Oct-25 08:24N 29°21' W 094°49'0 0.0
2014-Oct-25 07:21N 29°21' W 094°49'0 0.0
2014-Oct-25 06:27N 29°21' W 094°49'0 0.0
2014-Oct-24 20:24N 29°21' W 094°49'0 0.0
2014-Oct-24 18:28N 29°21' W 094°49'0 0.0
2014-Oct-24 17:33N 29°21' W 094°49'0 0.0
2014-Oct-24 16:30N 29°21' W 094°49'0 0.0
2014-Oct-24 15:32N 29°21' W 094°49'0 0.0
2014-Oct-24 14:31N 29°21' W 094°49'0 0.0
2014-Oct-24 13:13N 29°21' W 094°49'0 0.0
2014-Oct-24 11:20N 29°21' W 094°49'0 0.0
2014-Oct-24 09:33N 29°21' W 094°49'0 0.0
2014-Oct-24 07:31N 29°21' W 094°49'0 0.0
2014-Oct-24 06:33N 29°21' W 094°49'4 0.2
2014-Oct-23 10:08N 29°23' W 094°53'  
2014-Oct-17 03:15N 29°23' W 094°53'3 4.4
2014-Oct-17 02:33N 29°22' W 094°50'7 3.5
2014-Oct-17 00:32N 29°29' W 094°52'5 5.0
2014-Oct-16 23:33N 29°33' W 094°55'5 4.7
2014-Oct-16 22:33N 29°37' W 094°58'5 4.6
2014-Oct-16 21:33N 29°41' W 094°59'3 2.9
2014-Oct-16 20:33N 29°44' W 095°01'0 0.0
2014-Oct-16 19:33N 29°44' W 095°01'0 0.0
2014-Oct-16 18:33N 29°44' W 095°01'0 0.0
2014-Oct-16 17:33N 29°44' W 095°01'0 0.1
2014-Oct-16 16:33N 29°44' W 095°01'0 0.0
2014-Oct-16 15:33N 29°44' W 095°01'0 0.0
2014-Oct-16 14:32N 29°44' W 095°01'0 0.0
2014-Oct-16 13:33N 29°44' W 095°01'0 0.0
2014-Oct-16 12:33N 29°44' W 095°01'0 0.0
2014-Oct-16 11:33N 29°44' W 095°01'0 0.0
2014-Oct-16 10:33N 29°44' W 095°01'0 0.0
2014-Oct-16 09:33N 29°44' W 095°01'0 0.0
2014-Oct-16 08:33N 29°44' W 095°01'0 0.0
2014-Oct-16 07:33N 29°44' W 095°01'0 0.0
2014-Oct-16 06:32N 29°44' W 095°01'0 0.0
2014-Oct-16 05:33N 29°44' W 095°01'0 0.0
2014-Oct-16 04:33N 29°44' W 095°01'0 0.0
2014-Oct-16 03:33N 29°44' W 095°01'0 0.0
2014-Oct-16 02:33N 29°44' W 095°01'0 0.0
2014-Oct-16 01:33N 29°44' W 095°01'0 0.0
2014-Oct-16 00:33N 29°44' W 095°01'0 0.0
2014-Oct-15 23:33N 29°44' W 095°01'0 0.0
2014-Oct-15 22:33N 29°44' W 095°01'0 0.0
2014-Oct-15 21:33N 29°44' W 095°01'0 0.0
2014-Oct-15 20:33N 29°44' W 095°01'0 0.1
2014-Oct-15 19:33N 29°44' W 095°01'0 0.0
2014-Oct-15 18:33N 29°44' W 095°01'0 0.0
2014-Oct-15 17:33N 29°44' W 095°01'  
Track history (hours):
 
Tides and Currents Weather Stations Pressure Air Temp Water Temp Dewpoint Dewpoint Depression Visibility Wind Speed Wind Dir Waves Ship Positions

Martin Challenger

Owner: MARTIN OPERATING PARTNERSHIP LP, VIDOR, TX. More information available from US FCC via Universal Licensing System and Coast Guard Vessel Documentation Center.

Last reported at 2014-Oct-25 17:33 UTC. Time now 2014-Oct-25 23:39 UTC.
Position N 29°23' W 094°52'.

Length 20 m; draft 2.9 m.

MMSI: 366874920.

Date/timePositionNaut miles runAvg speedWind from/ knotsBaromVisibWave heightAir tempDewpointWater temp
2014-Oct-25 17:33N 29°23' W 094°52'3 1.2
2014-Oct-25 15:14N 29°21' W 094°49'0 0.0
2014-Oct-25 14:27N 29°21' W 094°49'0 0.0
2014-Oct-25 13:16N 29°21' W 094°49'0 0.0
2014-Oct-25 12:11N 29°21' W 094°49'0 0.0
2014-Oct-25 11:33N 29°21' W 094°49'0 0.0
2014-Oct-25 10:33N 29°21' W 094°49'0 0.0
2014-Oct-25 09:33N 29°21' W 094°49'0 0.0
2014-Oct-25 08:24N 29°21' W 094°49'0 0.0
2014-Oct-25 07:21N 29°21' W 094°49'0 0.0
2014-Oct-25 06:27N 29°21' W 094°49'0 0.0
2014-Oct-24 20:24N 29°21' W 094°49'0 0.0
2014-Oct-24 18:28N 29°21' W 094°49'0 0.0
2014-Oct-24 17:33N 29°21' W 094°49'0 0.0
2014-Oct-24 16:30N 29°21' W 094°49'0 0.0
2014-Oct-24 15:32N 29°21' W 094°49'0 0.0
2014-Oct-24 14:31N 29°21' W 094°49'0 0.0
2014-Oct-24 13:13N 29°21' W 094°49'0 0.0
2014-Oct-24 11:20N 29°21' W 094°49'0 0.0
2014-Oct-24 09:33N 29°21' W 094°49'0 0.0
2014-Oct-24 07:31N 29°21' W 094°49'0 0.0
2014-Oct-24 06:33N 29°21' W 094°49'4 0.2
2014-Oct-23 10:08N 29°23' W 094°53'  
2014-Oct-17 03:15N 29°23' W 094°53'3 4.4
2014-Oct-17 02:33N 29°22' W 094°50'7 3.5
2014-Oct-17 00:32N 29°29' W 094°52'5 5.0
2014-Oct-16 23:33N 29°33' W 094°55'5 4.7
2014-Oct-16 22:33N 29°37' W 094°58'5 4.6
2014-Oct-16 21:33N 29°41' W 094°59'3 2.9
2014-Oct-16 20:33N 29°44' W 095°01'0 0.0
2014-Oct-16 19:33N 29°44' W 095°01'0 0.0
2014-Oct-16 18:33N 29°44' W 095°01'0 0.0
2014-Oct-16 17:33N 29°44' W 095°01'0 0.1
2014-Oct-16 16:33N 29°44' W 095°01'0 0.0
2014-Oct-16 15:33N 29°44' W 095°01'0 0.0
2014-Oct-16 14:32N 29°44' W 095°01'0 0.0
2014-Oct-16 13:33N 29°44' W 095°01'0 0.0
2014-Oct-16 12:33N 29°44' W 095°01'0 0.0
2014-Oct-16 11:33N 29°44' W 095°01'0 0.0
2014-Oct-16 10:33N 29°44' W 095°01'0 0.0
2014-Oct-16 09:33N 29°44' W 095°01'0 0.0
2014-Oct-16 08:33N 29°44' W 095°01'0 0.0
2014-Oct-16 07:33N 29°44' W 095°01'0 0.0
2014-Oct-16 06:32N 29°44' W 095°01'0 0.0
2014-Oct-16 05:33N 29°44' W 095°01'0 0.0
2014-Oct-16 04:33N 29°44' W 095°01'0 0.0
2014-Oct-16 03:33N 29°44' W 095°01'0 0.0
2014-Oct-16 02:33N 29°44' W 095°01'0 0.0
2014-Oct-16 01:33N 29°44' W 095°01'0 0.0
2014-Oct-16 00:33N 29°44' W 095°01'0 0.0
2014-Oct-15 23:33N 29°44' W 095°01'0 0.0
2014-Oct-15 22:33N 29°44' W 095°01'0 0.0
2014-Oct-15 21:33N 29°44' W 095°01'0 0.0
2014-Oct-15 20:33N 29°44' W 095°01'0 0.1
2014-Oct-15 19:33N 29°44' W 095°01'0 0.0
2014-Oct-15 18:33N 29°44' W 095°01'0 0.0
2014-Oct-15 17:33N 29°44' W 095°01'  

Dump ship's entire track history